Other Public Products
Issued by NWS Grand Forks, ND

Home | Current Version | Previous Version | Text Only | Print | Product List | Glossary On
Versions: 1 2 3 4 5 6 7 8 9 10 11 12 13 14 15 16 17 18 19 20 21 22 23 24 25 26 27 28 29 30 31 32 33 34 35 36 37 38 39 40 41 42 43 44 45 46 47 48 49 50
892
FPUS83 KFGF 171010
OPUFGF
PRAIRIE TO PINES WEATHER ROUNDUP
NATIONAL WEATHER SERVICE EASTERN NORTH DAKOTA/GRAND FORKS ND
500 AM CDT TUE OCT 17 2017

 **SATELLITE DATA USED TO AUGMENT SKY COVER AT AUTOMATED STATIONS**
 *****  WEATHER ACROSS EASTERN NORTH DAKOTA  *****

CITY           SKY/WX    TMP DP  RH WIND       PRES   REMARKS
GRAND FORKS    FAIR      36  32  85 S5        29.89R
GRAND FORKS AF FAIR      37  33  83 SW5       29.88S
GRAND CITY NWS NOT AVBL
BUXTON           N/A     38  34  87 S6          N/A
DEVILS LAKE    FAIR      45  38  76 S5        29.89F
FARGO          FAIR      39  34  82 S8        29.93S
WAHPETON ARPT  NOT AVBL
$$

 *****  WEATHER ACROSS CENTRAL AND WESTERN NORTH DAKOTA  *****

CITY           SKY/WX    TMP DP  RH WIND       PRES   REMARKS
JAMESTOWN      FAIR      36  31  82 SW7       29.93F
BISMARCK       FAIR      34  31  88 CALM      29.96S
MINOT          FAIR      53  33  46 SW16      29.83F
MINOT AFB      FAIR      49  32  52 SW13      29.81F
GARRISON         N/A     40  37  89 S5        29.88F
WILLISTON      FAIR      43  32  65 SW9       29.87S
DICKINSON      FAIR      48  28  46 SW6       29.93F
HETTINGER      FAIR      38  26  62 CALM      30.00F
$$

 *****  OTHER OBSERVATIONS NORTHEAST NORTH DAKOTA  *****

CITY           SKY/WX    TMP DP  RH WIND       PRES   REMARKS
WALHALLA       FAIR     N/A N/A N/A S5        29.85S
LANGDON        FAIR      36  34  93 SW9       29.88S
CAVALIER       FAIR      37  32  81 SW5       29.85F
GRAFTON        FAIR      36  32  87 SW9       29.89S
CANDO          FAIR      34  34 100 CALM      29.89S
FORT TOTTEN      N/A     42  32  68 SE5       29.95S
ROLLA          FAIR      45  32  61 SW16      29.85S
RUGBY          FAIR      41  36  81 S9        29.85F
 ***** THE ABOVE OBSERVATIONS ARE NON NWS ARE NOT QUALITY
        CONTROLLED AND MAY MIS-REPORT RAIN FOR SNOW...
$$

 *****  OTHER OBSERVATIONS SOUTHEAST NORTH DAKOTA *****

CITY           SKY/WX    TMP DP  RH WIND       PRES   REMARKS
COOPERSTOWN    FAIR      37  34  87 SW9       29.93R
VALLEY CITY    FAIR      34  34 100 S6        29.95F
OAKES          NOT AVBL
GWINNER          N/A     37  36  93 SW7       29.97R
SHEYENNE NWR     N/A     33  32  96 SW2       29.95S
BUFFALO          N/A     40  32  75 SW7         N/A
WYNDMERE       NOT AVBL
 ***** THE ABOVE OBSERVATIONS ARE NON NWS ARE NOT QUALITY
       CONTROLLED AND MAY MIS-REPORT RAIN FOR SNOW...
$$

  *****  WEATHER ACROSS NORTHERN MINNESOTA  *****

CITY           SKY/WX    TMP DP  RH WIND       PRES   REMARKS
FLAG ISLAND    FAIR      46  37  71 CALM      29.86S
WARROAD        FAIR      37  34  87 S3        29.88F
ROSEAU           N/A     37  32  81 S7        29.88S
HALLOCK        FAIR      34  28  80 S8        29.87F
THF RVR FALLS  FAIR      40  33  76 SE5       29.92R
HALSTAD        NOT AVBL
FOSSTON        FAIR      36  32  87 S7        29.93S
BAUDETTE       FAIR      36  33  89 S5        29.89S
WASKISH        FAIR      34  34 100 CALM      29.90S
CROOKSTON      FAIR      34  30  86 S7        29.92R
$$
  *****  WEATHER ACROSS CENTRAL AND WEST MINNESOTA  *****

CITY           SKY/WX    TMP DP  RH WIND       PRES   REMARKS
BEMIDJI        FAIR      33  30  88 CALM      29.93R
PARK RAPIDS    FAIR      36  32  85 CALM      29.95R
WADENA         FAIR      37  37 100 CALM      29.96R
DETROIT LAKES  FAIR      41  39  93 CALM      29.95S
MOORHEAD       FAIR      39  36  87 S5        29.95S
FERGUS FALLS   FAIR      39  39 100 CALM      29.97S
ELBOW LAKE     FAIR      38  37  97 S3        29.97R
MORRIS MN      FAIR      37  37 100 CALM      29.97R
STAPLES        FAIR      36  36 100 CALM      29.96R
WHEATON        FAIR      43  36  75 CALM      29.99R
$$
  *****  WEATHER ELSEWHERE ACROSS MINNESOTA  *****

CITY           SKY/WX    TMP DP  RH WIND       PRES   REMARKS
DULUTH         FAIR      44  38  79 NW7       29.93R
INTRNTL FALLS  FAIR      31  28  89 CALM      29.89S
ELY            FAIR      39  36  87 CALM      29.91R
CLOQUET        FAIR      46  36  66 W6        29.93R
BRAINERD       FAIR      38  37  97 CALM      29.96R
HIBBING        FAIR      32  31  96 CALM      29.91R
ALEXANDRIA     FAIR      43  41  93 SW5       29.98R
SAINT CLOUD    FAIR      36  36 100 CALM      29.97R
MINNEAPOLIS    FAIR      50  41  71 SW3       29.98S
$$

  *****  WEATHER ACROSS SOUTH DAKOTA  *****

CITY           SKY/WX    TMP DP  RH WIND       PRES   REMARKS
SIOUX FALLS    FAIR      39  37  92 CALM      30.03F
BROOKINGS      FAIR      39  37  92 SE6       30.02R
WATERTOWN      FAIR      38  37  97 CALM      29.99S
HURON          FAIR      39  38  96 S5        30.01F
SISSETON         N/A     45  38  76 S3        29.96R
ABERDEEN       FAIR      33  32  96 S5        29.99F
MITCHELL       FAIR      39  37  92 CALM      30.03S
PIERRE         FAIR      43  35  73 W7        30.01F
MOBRIDGE       FAIR      41  34  76 SE6       29.97S
RAPID CITY     FAIR      40  26  57 W9        30.07F
$$

  *****  SOME WEATHER IN NEARBY STATES *****

CITY           SKY/WX    TMP DP  RH WIND       PRES   REMARKS
GLASGOW MT     FAIR      54  26  34 SW8       29.85F
GREAT FALLS MT FAIR      55  22  27 SW22      29.96F
CHEYENNE WY    FAIR      37  13  37 W9        30.27F
SCOTTSBLUFF NE FAIR      30  25  81 NW5       30.17F
OMAHA NE       FAIR      49  41  74 SE9       30.10S
DES MOINES IA  FAIR      54  40  59 S10       30.13R
DAVENPORT IA   FAIR      50  39  66 S8        30.20R
CHICAGO IL     FAIR      50  37  61 SW9       30.19S
EAU CLAIRE WI  FAIR      42  39  89 SW5       29.99R
LA CROSSE WI   FAIR      52  42  69 CALM      30.03S
$$

  *****  SOME NATIONAL WEATHER *****

CITY           SKY/WX    TMP DP  RH WIND       PRES   REMARKS
LA GUARDIA NY  FAIR      46  35  65 N10       30.29R
RALEIGH NC     FAIR      46  41  82 N3        30.29R
ATLANTA GA     FAIR      51  41  68 NE13      30.26R
NEW ORLEANS LA FAIR      62  51  67 NE12      30.15R
OKLAHOMA CITY  FAIR      43  40  89 S7        30.24S
ALBUQUERQUE NM FAIR      50  28  42 CALM      30.34F
SALT LAKE CITY FAIR      40  31  70 SE8       30.31F
LOS ANGELES CA FAIR      69  48  47 CALM      29.98F
BOISE ID       FAIR      44  29  55 SE5       30.22F
SEATTLE WA     FAIR      51  47  86 S13       30.03S
$$

*** WEATHER ACROSS MANITOBA...SASKATCHEWAN AND ONTARIO ***
                ***ONTARIO***

CITY           SKY/WX    TMP DP  RH WIND       PRES   REMARKS
GERALDTON      CLEAR     45  37  76 W10       29.69R
THUNDER BAY    CLEAR     45  37  76 W9        29.83R
SIOUX LOOKOUT  CLEAR     43  36  75 W6        29.82R
TORONTO        CLEAR     41  30  65 SW5       30.22F
BIG TROUT LK   LGT RAIN  36  36 100 NW16G28   29.62R FOG
PICKLE LAKE    NOT AVBL
DRYDEN         PTCLDY    41  34  75 W8        29.84R
KENORA         CLEAR     45  36  70 SW5       29.85S
$$
                *** MANITOBA***

CITY           SKY/WX    TMP DP  RH WIND       PRES   REMARKS
BRANDON        CLEAR     32  27  80 CALM      29.77F
DAUPHIN        CLEAR     39  30  70 E3        29.74F
ISLAND LAKE    NOT AVBL
PILOT MOUND      N/A     32  28  86 S7          N/A
THE PAS        CLOUDY    41  34  75 SE9       29.73F
THOMPSON       MOCLDY    28  28 100 NE3       29.78R
WINNIPEG       PTCLDY    37  34  87 S7        29.82F
LYNN LAKE      CLOUDY    28  28 100 SE6       29.72R WCI  22
CHURCHILL      FLURRIES  25  23  93 NW15      29.78R WCI  12
GILLAM         CLOUDY    30  27  86 NW8       29.78R WCI  23
$$
                ***SASKATCHEWAN***

CITY           SKY/WX    TMP DP  RH WIND       PRES   REMARKS
ESTEVAN        NOT AVBL
KINDERSLEY     PTCLDY    41  30  65 SW8       29.65R
LLOYDMINSTER   CLEAR     37  30  75 W5        29.55F
PRINCE ALBERT  PTCLDY    43  28  56 E5        29.61F
REGINA         CLEAR     43  28  56 S3        29.70F
YORKTON        CLEAR     39  30  70 S8        29.67F



USA.gov is the U.S. government's official web portal to all federal, state and local government web resources and services.